Location: Asheville, NC
(35.6000°N, 82.5500°W)
Time: 06:04:39
(UTC-04:00)

Vanguard 3 - Pass Details

Date: 15 December 2017
Orbit: 508 x 3264 km, 33.3° (Epoch: 22 July)

Event Time Altitude Azimuth Distance (km) Brightness Sun altitude
Rises 09:14:37 0° 205° (SSW) 5,032 11.5 15.8°
Reaches altitude 10° 09:20:45 10° 181° (S) 3,338 11.1 16.7°
Maximum altitude 09:23:57 13° 157° (SSE) 2,758 11.5 17.1°
Drops below altitude 10° 09:26:38 10° 132° (SE) 2,658 12.3 17.5°
Sets 09:30:19 0° 103° (ESE) 3,198 11.1 18.0°
